Location: Unspecified
(0.0000°N, 0.0000°E)
Time: 21:38:28
(UTC+00:00)

Vanguard 1 Rocket - Visible Passes

Search period start: 19 October 2018 00:00
Search period end: 29 October 2018 00:00
Orbit: 650 x 4226 km, 34.3° (Epoch: 16 October)

Date Brightness Start Highest point End Pass type
(mag) Time Alt. Az. Time Alt. Az. Time Alt. Az.
19 Oct 11.0 02:24:22 10° SSW 02:38:21 36° SE 02:59:46 10° E visible
19 Oct 10.7 04:49:41 10° SW 05:10:39 86° SE 05:37:05 10° NE visible
20 Oct 10.9 01:17:44 16° S 01:24:11 21° SE 01:38:26 10° ESE visible
20 Oct 10.7 03:37:43 10° SW 03:55:31 64° SE 04:21:32 10° ENE visible
21 Oct 11.2 00:11:12 10° SE 00:11:12 10° SE 00:12:03 10° SE visible
21 Oct 10.7 02:28:33 16° SSW 02:41:10 44° SE 03:03:58 10° ENE visible
21 Oct 10.6 04:52:38 10° SW 05:13:12 82° NW 05:39:45 10° NE visible
22 Oct 10.7 01:22:09 22° SSE 01:27:25 27° SE 01:43:54 10° E visible
22 Oct 10.4 03:40:29 10° SW 03:58:02 76° SE 04:24:34 10° ENE visible
23 Oct 11.1 00:15:51 13° SE 00:15:51 13° SE 00:20:41 10° ESE visible
23 Oct 10.5 02:33:13 24° SSW 02:43:47 53° SE 03:07:40 10° ENE visible
23 Oct 10.6 04:55:49 10° WSW 05:15:51 70° NW 05:42:14 10° NE visible
24 Oct 10.5 01:27:00 31° SSE 01:30:22 33° SE 01:48:42 10° E visible
24 Oct 10.3 03:44:23 13° SW 04:00:34 88° SE 04:27:18 10° NE visible
25 Oct 11.1 00:20:49 16° SE 00:20:49 16° SE 00:27:16 10° ESE visible
25 Oct 10.2 02:38:13 37° SSW 02:46:20 64° SE 03:10:56 10° ENE visible
25 Oct 10.6 04:59:16 10° WSW 05:18:44 59° NW 05:44:37 10° NE visible
26 Oct 10.2 01:32:04 41° SE 01:33:05 41° SE 01:52:52 10° ENE visible
26 Oct 10.2 03:49:27 21° WSW 04:03:15 79° NW 04:29:49 10° NE visible
27 Oct 11.0 00:25:56 19° ESE 00:25:56 19° ESE 00:32:53 10° E visible
27 Oct 9.8 02:43:20 52° SSW 02:48:54 77° SE 03:13:50 10° ENE visible
27 Oct 10.7 05:02:59 10° WSW 05:21:52 50° NNW 05:46:57 10° NE visible
28 Oct 10.1 01:37:10 50° ESE 01:37:10 50° ESE 01:56:31 10° ENE visible
28 Oct 10.2 03:54:33 28° WSW 04:06:09 66° NW 04:32:10 10° NE visible
